Notices

What's New in latest Release from April 7th, 2021:

- Updated Glossary, including Speed of Maximum Gust, and Total Hourly Precipitation

- Updated national and regional climate services offices contacts and prices information

- Addition of station inventory lists for 1981-2010, 1971-2000, and 1961-1990 Normals.

If you haven't already, please take our survey and provide feedback about our website: https://eccc.sondage-survey.ca/f/LanguageSelection.aspx?s=442ca660-fcf1-47c0-95a9-59707d6fd709

Hourly Data Report for December 29, 2003

TORONTO CITY
ONTARIO

43°40'00.000" N
79°24'00.000" W
112.50 m
6158355
71508
XTO

Download Data

Hourly Data (December 2003)
Hourly Data Report for December 29, 2003
TIME
LST
Temp Definition
°C
Dew Point Definition
°C
Rel Hum Definition
%
Precip. Amount Definition
mm

Wind Dir Definition
10's deg

Wind Spd Definition
km/h
Visibility Definition
km
Stn Press Definition
kPa
Hmdx Definition


Wind Chill Definition


Weather Definition


00:00 8.1 1.1 61   LegendMM LegendMM LegendMM 100.28     LegendNANA
01:00 8.2 0.9 60   LegendMM LegendMM LegendMM 100.24     LegendNANA
02:00 8.2 0.6 59   LegendMM LegendMM LegendMM 100.23     LegendNANA
03:00 8.4 0.5 57   LegendMM LegendMM LegendMM 100.21     LegendNANA
04:00 7.8 0.8 61   LegendMM LegendMM LegendMM 100.16     LegendNANA
05:00 7.6 0.8 62   LegendMM LegendMM LegendMM 100.09     LegendNANA
06:00 0.9 -1.3 85   LegendMM LegendMM LegendMM 100.16     LegendNANA
07:00 1.1 -1.1 85   LegendMM LegendMM LegendMM 100.25     LegendNANA
08:00 6.6 1.3 69   LegendMM LegendMM LegendMM 100.11     LegendNANA
09:00 7.6 1.0 63   LegendMM LegendMM LegendMM 100.12     LegendNANA
10:00 7.5 1.2 64   LegendMM LegendMM LegendMM 100.06     LegendNANA
11:00 8.1 0.9 60   LegendMM LegendMM LegendMM 99.93     LegendNANA
12:00 7.8 1.7 65   LegendMM LegendMM LegendMM 99.89     LegendNANA
13:00 2.9 -4.4 59   LegendMM LegendMM LegendMM 100.58     LegendNANA
14:00 7.7 4.3 79   LegendMM LegendMM LegendMM 99.78     LegendNANA
15:00 6.6 5.0 90   LegendMM LegendMM LegendMM 99.80     LegendNANA
16:00 6.6 5.3 91   LegendMM LegendMM LegendMM 99.80     LegendNANA
17:00 6.3 5.6 95   LegendMM LegendMM LegendMM 99.74     LegendNANA
18:00 6.3 5.7 96   LegendMM LegendMM LegendMM 99.68     LegendNANA
19:00 1.5 -5.1 61   LegendMM LegendMM LegendMM 100.87     LegendNANA
20:00 6.2 5.8 97   LegendMM LegendMM LegendMM 99.63     LegendNANA
21:00 6.2 5.7 97   LegendMM LegendMM LegendMM 99.51     LegendNANA
22:00 6.6 5.8 95   LegendMM LegendMM LegendMM 99.42     LegendNANA
23:00 6.6 6.1 97   LegendMM LegendMM LegendMM 99.26     LegendNANA

Notes on Data Quality.

Legend

  • E = Estimated
  • M = Missing
  • NA = Not Available*
  • [empty] = Indicates an unobserved value
Date modified: